Flag for Canada Weather past 2 weeks in Whitehorse, Yukon Territory, Canada

Now
39 °F

Broken clouds.


Feels Like: 30 °F
Forecast: 29 / 39 °F
Wind: 17 mph from Southeast

Location: Withehorse


UV Index: 0 (Low)

Visibility: 30 mi


Pressure: 29.72 "Hg

Humidity: 56%

Dew point: 25 °F

Location of WhitehorseLocation

Historic Weather in Whitehorse

°F

Whitehorse temperature yesterday

Maximum temperature yesterday: 41 °F (at 12:00 PM)
Minimum temperature yesterday: 34 °F (at 1:00 AM)
Average temperature yesterday: 37 °F

Past Weeks' High & Low Weather Summary

 TemperatureHumidityPressure
High52 °F (Apr 21, 5:00 PM)100% (Apr 23, 1:00 AM)30.40 "Hg (Apr 23, 1:00 AM)
Low7 °F (Apr 11, 7:00 AM)18% (Apr 14, 4:00 PM)29.46 "Hg (Apr 17, 2:00 PM)
Average35 °F56%29.88 "Hg
* Reported Apr 9 11:00 AM — Apr 24 11:00 AM, Whitehorse, Weather by CustomWeather, © 2014

Note: Actual official high and low records may vary slightly from our data, if they occured in-between our weather recording intervals... More about our weather records

Advertising

Historic Weather Conditions — Data for Previous 24 hours

 ConditionsComfort  
Time TempWeatherWind HumidityBarometerVisibility
11:00 AM
Apr 24
37 °FScattered showers. Broken clouds.14 mph60%29.72 "Hg15 mi
10:00 AM34 °FLight snow. More clouds than sun.13 mph75%29.72 "Hg15 mi
9:00 AM30 °FLight snow. Mostly cloudy.17 mph86%29.72 "Hg6 mi
8:00 AM32 °FSnow flurries. Broken clouds.16 mph80%29.71 "Hg8 mi
7:00 AM32 °FSnow flurries. Passing clouds.15 mph80%29.70 "Hg6 mi
6:00 AM32 °FScattered showers. Passing clouds.12 mph87%29.70 "Hg20 mi
5:00 AM32 °FPartly cloudy.14 mph87%29.71 "Hg8 mi
4:00 AM32 °FLight snow. Mostly cloudy.8 mph87%29.71 "Hg6 mi
3:00 AM32 °FLight snow. Mostly cloudy.7 mph87%29.71 "Hg12 mi
2:00 AM32 °FLight snow. Mostly cloudy.8 mph93%29.71 "Hg3 mi
1:00 AM34 °FOvercast.10 mph87%29.72 "Hg20 mi
12:00 AM34 °FOvercast.3 mph87%29.72 "Hg20 mi
11:00 PM
Apr 23
34 °FMostly cloudy.9 mph81%29.74 "Hg12 mi
10:00 PM36 °FMostly cloudy.12 mph75%29.75 "Hg20 mi
9:00 PM37 °FMore clouds than sun.10 mph70%29.76 "Hg20 mi
8:00 PM37 °FMore clouds than sun.12 mph75%29.77 "Hg20 mi
7:00 PM39 °FMostly cloudy.14 mph70%29.78 "Hg20 mi
6:00 PM41 °FOvercast.13 mph66%29.78 "Hg15 mi
5:00 PM37 °FSprinkles. Overcast.12 mph75%29.80 "Hg15 mi
4:00 PM39 °FSprinkles. Overcast.9 mph70%29.81 "Hg15 mi
3:00 PM39 °FMore clouds than sun.8 mph70%29.82 "Hg10 mi
2:00 PM41 °FSprinkles. More clouds than sun.13 mph61%29.81 "Hg15 mi
1:00 PM41 °FSprinkles. Overcast.7 mph61%29.80 "Hg15 mi
12:00 PM41 °FMore clouds than sun.9 mph61%29.81 "Hg25 mi
Weather by CustomWeather, © 2014

See weather overview